Regional Weather Roundup
Issued by NWS Charleston, SC

Current Version | Previous Version | Text Only | Print | Product List | Glossary On
Versions: 1 2 3 4 5 6 7 8 9 10 11 12 13 14 15 16 17 18 19 20 21 22 23 24 25 26 27 28 29 30 31 32 33 34 35 36 37 38 39 40 41 42 43 44 45 46 47 48 49 50
000
ASUS42 KCHS 211211
RWRCHS

REGIONAL WEATHER ROUNDUP
NATIONAL WEATHER SERVICE CHARLESTON SC
800 AM EDT TUE APR 21 2015

NOTE: "FAIR" INDICATES FEW OR NO CLOUDS BELOW 12,000 FEET WITH NO
SIGNIFICANT WEATHER AND/OR OBSTRUCTIONS TO VISIBILITY.

NOT ALL STATIONS ARE QUALITY CONTROLLED BY THE NATIONAL
WEATHER SERVICE. USE DATA WITH CAUTION...ESPECIALLY
DEWPOINT OBSERVATIONS.

SCZ027-030-031-034>040-042>050-211300-
...SOUTHEAST SOUTH CAROLINA...

CITY           SKY/WX    TMP DP  RH WIND       PRES   REMARKS
N CHARLESTON   PTSUNNY   63  58  83 W8        29.92R
6HR MIN TEMP:  61; 6HR MAX TEMP:  68;

WATERFRONT PRK   N/A     64 N/A N/A W7          N/A
MOUNT PLEASANT FAIR      64  59  82 CALM      29.91R
PINOPOLIS      NOT AVBL
MONCKS CORNER  FAIR      61  57  88 W3        29.91R
SUMMERVILLE    FAIR      59  59 100 W5        29.92R
BEAUFORT MCAS  PTSUNNY   62  58  86 NW6       29.93R
6HR MIN TEMP:  61; 6HR MAX TEMP:  66;

BEAUFORT ARPT  FAIR      63  61  94 CALM      29.92R
HILTON HEAD IS MOSUNNY   63  61  94 SW8       29.94R
WALTERBORO     NOT AVBL
ALLENDALE      FAIR      59  54  82 CALM      29.93R

...SOUTHERN MIDLANDS AND PEE DEE...

CITY           SKY/WX    TMP DP  RH WIND       PRES   REMARKS
GEORGETOWN     NOT AVBL
KINGSTREE      NOT AVBL
ORANGEBURG     SUNNY     59  50  72 NW5       29.92R
6HR MIN TEMP:  56; 6HR MAX TEMP:  63;

BARNWELL       FAIR      57  54  88 W5        29.94R
AIKEN          FAIR      52  48  87 CALM      29.96R
MANNING        FAIR      59  52  77 W3        29.91R HAZE
COLUMBIA       MOSUNNY   56  50  80 W6        29.91R
6HR MIN TEMP:  52; 6HR MAX TEMP:  65;

SUMTER         MOSUNNY   58  52  80 W6        29.89R
6HR MIN TEMP:  55; 6HR MAX TEMP:  64;

FLORENCE       SUNNY     60  53  77 NW5       29.89R
6HR MIN TEMP:  58; 6HR MAX TEMP:  66;

MYRTLE BEACH   SUNNY     64  57  77 W9        29.90R
N MYRTLE BEACH SUNNY     63  57  81 W6        29.87R
6HR MIN TEMP:  62; 6HR MAX TEMP:  68;


$$

GAZ063-065-086>088-099>101-113>116-118-119-134>141-150-211300-
...SOUTHEAST GEORGIA...

CITY           SKY/WX    TMP DP  RH WIND       PRES   REMARKS
SAVANNAH ARPT  PTSUNNY   62  58  86 W6        29.94R
6HR MIN TEMP:  60; 6HR MAX TEMP:  64;

HUNTER AAF     PTSUNNY   62  62 100 W8        29.92R
6HR MIN TEMP:  60; 6HR MAX TEMP:  65;

FORT STEWART   MOSUNNY   62  56  82 NW6       29.94R
6HR MIN TEMP:  61; 6HR MAX TEMP:  66;

STATESBORO       N/A     58  58 100 NW5       29.95R
SYLVANIA       PTSUNNY   58  55  91 NW6       29.95R
CLAXTON        FAIR      59  55  88 W5        29.96R

...CSRA...CENTRAL AND FAR SOUTHEAST GEORGIA...

CITY           SKY/WX    TMP DP  RH WIND       PRES   REMARKS
THOMSON        SUNNY     53  53 100 CALM      29.99R
AUGUSTA-BUSH   SUNNY     55  49  80 W8        29.94R
6HR MIN TEMP:  52; 6HR MAX TEMP:  63;

AUGUSTA-DANIEL SUNNY     57  47  69 W3        29.94R
SWAINSBORO     NOT AVBL
VIDALIA        PTSUNNY   59  54  82 NW6       29.97R
EASTMAN        FAIR      55  55 100 CALM      30.01R
HAZLEHURST     FAIR      59  56  87 CALM      29.97R
ALMA           SUNNY     60  55  83 NW3       29.97R
6HR MIN TEMP:  59; 6HR MAX TEMP:  66;

WAYCROSS       MOSUNNY   64  62  93 N3        29.97R
JESUP          FAIR      64  59  82 NW6       29.96R
BAXLEY         FAIR      61  59  94 CALM      29.97R
BRUNSWICK      PTSUNNY   64  63  94 W3        29.96R
SAINT SIMONS   CLOUDY    65  64  97 W5        29.95R
6HR MIN TEMP:  64; 6HR MAX TEMP:  67;


$$

SCZ027-028-034-036>038-045-046-048>050-GAZ119-141-211300-
...LAKE AND SUPPLEMENTAL COASTAL OBSERVATIONS...

STATION/POSITION TIME  TEMP    WIND        PRES    WAVE   SWELL
                       AIR SEA DIR/SP/G            HT/PER HT/PER/DIR
                 (UTC) (F)     (DEG/KT/KT) (MB)    (FT/S) (FT/S/D)
UPR LAKE MARION  NOT AVBL
WINYAH BAY       NOT AVBL
LAKE MURRAY      1100   56     290/  4/  6 1011.9R
ACE BASIN NERRS  NOT AVBL
FORT PULASKI     1100   64 71  250/  5/  7 1013.8R
SAPELO ISLAND    NOT AVBL

$$

ANZ835-935-AMZ111-154-330-350-352-354-370-450-454-472-211300-
...C-MAN AND BUOY OBSERVATIONS...

STATION/POSITION TIME  TEMP    WIND        PRES    WAVE   SWELL
                       AIR SEA DIR/SP/G            HT/PER HT/PER/DIR
                 (UTC) (F)     (DEG/KT/KT) (MB)    (FT/S) (FT/S/D)
BUOY 41004       1150   69 73  280/ 16/ 17 1011.8R   5/ 6   2/ 9
BUOY 41008       1150   67 68  280/ 12/ 14 1013.7R   2/ 4   2/120/ 8
FOLLY BEACH CMAN 1100   63     250/  5/  7 1012.1R
CAPERS NEARSHORE NOT AVBL
FRIPP NEARSHORE  NOT AVBL


STATION/POSITION TIME  TEMP    WIND        PRES    WAVE   SWELL
                       AIR SEA DIR/SP/G            HT/PER HT/PER/DIR
                 (UTC) (F)     (DEG/KT/KT) (MB)    (FT/S) (FT/S/D)
5E ST. MARYS GA  1121      69                N/A     2/11
FRYING PAN BUOY  1150   71 72  260/ 19/ 21 1010.5R   6/ 6   2/280/14
BUOY 41025       1150   70 74  270/ 19/ 23 1008.0R   7/ 7   2/100/12
CAPE LOOKOUT NC  1100   64     250/ 12/ 14 1008.4R
BUOY 41002       1150   72 72  230/ 16/ 19 1012.9R   5/ 6   2/ 50/14
BUOY 41010       1120   77 78  200/ 12/ 14 1013.9R
ST AUGUSTINE FL  1200   66 63  250/  4/  6 1014.8R


$$


USA.gov is the U.S. government's official web portal to all federal, state and local government web resources and services.